• Join FlightAware (Why Join?)
  • Login
  • US Flag 
05:23AM EST


 

Airport Tracker/Info


-or-


 

Live Flight TrackerFlight Track Log ✈ SWA1635 ✈ 09-May-2013 ✈ KLAX - KSJC

Flight Track Log - Related Links

Times and Time Zones

All times are in EDT time to prevent confusion due to time zone crossing. See the SWA1635 flight status page for this flight to view local times or setup timezone preferences in your user account.

Time Position Orientation Groundspeed Altitude Reporting Facility
EDT Latitude Longitude Course Direction KTS MPH feet Rate Location/Type
02:18PM 33.9389 -118.5281 264° West 235 270 4,400  Level Los Angeles Center
02:19PM 33.9267 -118.6267 262° West 275 316 8,300 3,240 Climbing Los Angeles Center
02:21PM 33.9167 -118.7261 263° West 301 346 11,100 2,640 Climbing Los Angeles Center
02:22PM 33.9133 -118.8578 268° West 369 425 13,800 2,700 Climbing Los Angeles Center
02:23PM 33.9628 -118.9661 299° West 375 432 16,800 2,520 Climbing Los Angeles Center
02:24PM 34.0322 -119.0672 310° West 391 450 19,100 2,400 Climbing Los Angeles Center
02:25PM 34.1036 -119.1708 310° West 401 461 21,800 2,220 Climbing Los Angeles Center
02:26PM 34.1750 -119.2772 309° West 411 473 23,800 1,860 Climbing Los Angeles Center
02:27PM 34.2486 -119.3869 309° West 420 483 25,700 2,100 Climbing Los Angeles Center
02:28PM 34.3383 -119.5211 309° West 427 491 28,200 2,340 Climbing Los Angeles Center
02:29PM 34.4119 -119.6300 309° West 420 483 30,600 1,860 Climbing Los Angeles Center
02:30PM 34.4850 -119.7381 309° West 416 479 32,100 1,500 Climbing Los Angeles Center
02:31PM 34.5747 -119.8272 321° Northwest 420 483 33,700 900 Climbing Los Angeles Center
02:32PM 34.6731 -119.9058 327° Northwest 415 478 34,000 120 Climbing Los Angeles Center
02:33PM 34.7678 -119.9850 326° Northwest 413 475 34,000 120 Level Los Angeles Center
02:34PM 34.8819 -120.0797 326° Northwest 414 476 34,300 960 Climbing Los Angeles Center
02:35PM 34.9664 -120.1503 326° Northwest 409 471 36,000 780 Climbing Los Angeles Center
02:36PM 35.0600 -120.2283 326° Northwest 412 474 36,000 -60 Level Los Angeles Center
02:37PM 35.1753 -120.3244 326° Northwest 421 484 35,900  Descending Los Angeles Center
02:38PM 35.2703 -120.4033 326° Northwest 416 479 36,000  Climbing Los Angeles Center
02:39PM 35.3639 -120.4842 325° Northwest 415 478 36,000 -120 Level Los Angeles Center
02:40PM 35.4192 -120.5314 325° Northwest 412 474 35,900  Descending Oakland Center
02:41PM 35.5147 -120.6114 326° Northwest 412 474 36,000  Climbing Oakland Center
02:42PM 35.6083 -120.6919 325° Northwest 409 471 36,000 -60 Level Oakland Center
02:43PM 35.7014 -120.7706 326° Northwest 407 468 35,900  Descending Oakland Center
02:44PM 35.7944 -120.8500 325° Northwest 407 468 36,000  Climbing Oakland Center
02:45PM 35.8892 -120.9275 326° Northwest 409 471 36,000 -540 Level Oakland Center
02:46PM 35.9808 -121.0086 324° Northwest 407 468 34,900 -2,400 Descending Oakland Center
02:47PM 36.0794 -121.0906 326° Northwest 431 496 31,200 -3,360 Descending Oakland Center
02:48PM 36.1797 -121.1772 325° Northwest 441 507 28,100 -3,000 Descending Oakland Center
02:49PM 36.2828 -121.2658 325° Northwest 452 520 25,100 -3,180 Descending Oakland Center
02:50PM 36.4019 -121.3694 325° Northwest 440 506 21,700 -3,120 Descending Oakland Center
02:51PM 36.5000 -121.4556 325° Northwest 434 499 18,800 -2,640 Descending Oakland Center
02:52PM 36.5900 -121.5350 325° Northwest 401 461 16,300 -2,520 Descending Oakland Center
02:53PM 36.6800 -121.6019 329° Northwest 383 441 13,700 -2,220 Descending Oakland Center
02:54PM 36.7783 -121.5906 North 352 405 11,900 -1,560 Descending Oakland Center
02:55PM 36.8697 -121.5808 North 320 368 10,600 -1,380 Descending Oakland Center
02:56PM 36.9458 -121.5767 North 290 334 9,100 -1,560 Descending Oakland Center
02:57PM 37.0169 -121.6203 334° Northwest 286 329 7,500 -1,560 Descending Oakland Center
02:58PM 37.0861 -121.6611 335° Northwest 277 319 6,000 -1,380 Descending Oakland Center
02:59PM 37.1500 -121.7000 334° Northwest 259 298 5,000 -960 Descending Northern Cal TRACON
03:00PM 37.2000 -121.7500 321° Northwest 225 259 4,300 -660 Descending Northern Cal TRACON
03:00PM 37.2033 -121.7514 342° North 248 285 4,200 -960 Descending Oakland Center
03:01PM 37.2536 -121.8100 317° Northwest 220 253 3,100 -1,140 Descending Oakland Center
03:02PM 37.2919 -121.8514 319° Northwest 199 229 1,900 -1,080 Descending Oakland Center
03:03PM 37.3250 -121.8872 319° Northwest 177 204 1,000 -900 Descending Oakland Center
03:04PM 37.3533 -121.9169 320° Northwest 153 176 100 -900 Descending Oakland Center
03:06PM 37.3500 -121.9167 North  Level FlightAware Approximate
03:13PM 37.3627 -121.9291 North  Level Estimated
03:14PM 37.3627 -121.9291 North  Level Estimated